ASIASAT 6

Last updated on Wed Sep 09 2026 00:03:00 GMT+0000 (Coordinated Universal Time)

1 40141U 14052A 26251.46882659 -.00000383 00000+0 00000+0 0 9999 2 40141 0.0479 277.6298 0000840 253.1606 105.4339 1.00271278 43918
UTC large
Height (km)
Speed (km/s)
/
Latitude / Longitude
Inclination (degrees)
Orbital Period (minutes)
Azimuth
Elevation
Range (km)
Doppler Factor

Next 0 passes for location: London (51.5072 / 0.1276)

No passes found over London.
ASIASAT 6